Year,Month,Day,Hour,Minute,Value (Times are PST for temperature in C)
2017,08,16,00,00,14.80
2017,08,16,00,01,14.80
2017,08,16,00,02,14.80
2017,08,16,00,03,14.80
2017,08,16,00,04,14.80
2017,08,16,00,05,14.80
2017,08,16,00,06,14.80
2017,08,16,00,07,14.80
2017,08,16,00,08,14.80
2017,08,16,00,09,14.80
2017,08,16,00,10,14.80
2017,08,16,00,11,14.80
2017,08,16,00,12,14.80
2017,08,16,00,13,14.80
2017,08,16,00,14,14.80
2017,08,16,00,15,14.80
2017,08,16,00,16,14.80
2017,08,16,00,17,14.80
2017,08,16,00,18,14.80
2017,08,16,00,19,14.80
2017,08,16,00,20,14.80
2017,08,16,00,21,14.80
2017,08,16,00,22,14.80
2017,08,16,00,23,14.80
2017,08,16,00,24,14.80
2017,08,16,00,25,14.80
2017,08,16,00,26,14.80
2017,08,16,00,27,14.80
2017,08,16,00,28,14.80
2017,08,16,00,29,14.80
2017,08,16,00,30,14.80
2017,08,16,00,31,14.80
2017,08,16,00,32,14.80
2017,08,16,00,33,14.80
2017,08,16,00,34,14.70
2017,08,16,00,35,14.70
2017,08,16,00,36,14.70
2017,08,16,00,37,14.70
2017,08,16,00,38,14.70
2017,08,16,00,39,14.70
2017,08,16,00,40,14.70
2017,08,16,00,41,14.70
2017,08,16,00,42,14.70
2017,08,16,00,43,14.70
2017,08,16,00,44,14.70
2017,08,16,00,45,14.70
2017,08,16,00,46,14.70
2017,08,16,00,47,14.60
2017,08,16,00,48,14.60
2017,08,16,00,49,14.60
2017,08,16,00,50,14.60
2017,08,16,00,51,14.60
2017,08,16,00,52,14.60
2017,08,16,00,53,14.60
2017,08,16,00,54,14.60
2017,08,16,00,55,14.50
2017,08,16,00,56,14.50
2017,08,16,00,57,14.50
2017,08,16,00,58,14.50
2017,08,16,00,59,14.50
2017,08,16,01,00,14.50
2017,08,16,01,01,14.50
2017,08,16,01,02,14.40
2017,08,16,01,03,14.40
2017,08,16,01,04,14.40
2017,08,16,01,05,14.40
2017,08,16,01,06,14.40
2017,08,16,01,07,14.40
2017,08,16,01,08,14.40
2017,08,16,01,09,14.40
2017,08,16,01,10,14.40
2017,08,16,01,11,14.40
2017,08,16,01,12,14.30
2017,08,16,01,13,14.30
2017,08,16,01,14,14.30
2017,08,16,01,15,14.30
2017,08,16,01,16,14.30
2017,08,16,01,17,14.30
2017,08,16,01,18,14.30
2017,08,16,01,19,14.30
2017,08,16,01,20,14.20
2017,08,16,01,21,14.20
2017,08,16,01,22,14.20
2017,08,16,01,23,14.20
2017,08,16,01,24,14.20
2017,08,16,01,25,14.20
2017,08,16,01,26,14.20
2017,08,16,01,27,14.20
2017,08,16,01,28,14.10
2017,08,16,01,29,14.10
2017,08,16,01,30,14.10
2017,08,16,01,31,14.10
2017,08,16,01,32,14.00
2017,08,16,01,33,14.00
2017,08,16,01,34,14.00
2017,08,16,01,35,14.00
2017,08,16,01,36,13.90
2017,08,16,01,37,13.90
2017,08,16,01,38,13.90
2017,08,16,01,39,13.90
2017,08,16,01,40,13.90
2017,08,16,01,41,13.80
2017,08,16,01,42,13.80
2017,08,16,01,43,13.80
2017,08,16,01,44,13.80
2017,08,16,01,45,13.80
2017,08,16,01,46,13.70
2017,08,16,01,47,13.70
2017,08,16,01,48,13.70
2017,08,16,01,49,13.70
2017,08,16,01,50,13.60
2017,08,16,01,51,13.60
2017,08,16,01,52,13.60
2017,08,16,01,53,13.60
2017,08,16,01,54,13.60
2017,08,16,01,55,13.60
2017,08,16,01,56,13.60
2017,08,16,01,57,13.60
2017,08,16,01,58,13.60
2017,08,16,01,59,13.50
2017,08,16,02,00,13.50
2017,08,16,02,01,13.50
2017,08,16,02,02,13.50
2017,08,16,02,03,13.50
2017,08,16,02,04,13.40
2017,08,16,02,05,13.40
2017,08,16,02,06,13.40
2017,08,16,02,07,13.40
2017,08,16,02,08,13.40
2017,08,16,02,09,13.40
2017,08,16,02,10,13.40
2017,08,16,02,11,13.40
2017,08,16,02,12,13.40
2017,08,16,02,13,13.30
2017,08,16,02,14,13.30
2017,08,16,02,15,13.30
2017,08,16,02,16,13.30
2017,08,16,02,17,13.30
2017,08,16,02,18,13.30
2017,08,16,02,19,13.30
2017,08,16,02,20,13.30
2017,08,16,02,21,13.30
2017,08,16,02,22,13.30
2017,08,16,02,23,13.30
2017,08,16,02,24,13.30
2017,08,16,02,25,13.30
2017,08,16,02,26,13.30
2017,08,16,02,27,13.30
2017,08,16,02,28,13.30
2017,08,16,02,29,13.20
2017,08,16,02,30,13.30
2017,08,16,02,31,13.20
2017,08,16,02,32,13.20
2017,08,16,02,33,13.20
2017,08,16,02,34,13.20
2017,08,16,02,35,13.20
2017,08,16,02,36,13.20
2017,08,16,02,37,13.20
2017,08,16,02,38,13.20
2017,08,16,02,39,13.20
2017,08,16,02,40,13.20
2017,08,16,02,41,13.20
2017,08,16,02,42,13.20
2017,08,16,02,43,13.20
2017,08,16,02,44,13.20
2017,08,16,02,45,13.20
2017,08,16,02,46,13.20
2017,08,16,02,47,13.20
2017,08,16,02,48,13.10
2017,08,16,02,49,13.10
2017,08,16,02,50,13.10
2017,08,16,02,51,13.10
2017,08,16,02,52,13.10
2017,08,16,02,53,13.10
2017,08,16,02,54,13.10
2017,08,16,02,55,13.10
2017,08,16,02,56,13.10
2017,08,16,02,57,13.10
2017,08,16,02,58,13.10
2017,08,16,02,59,13.10
2017,08,16,03,00,13.10
2017,08,16,03,01,13.10
2017,08,16,03,02,13.10
2017,08,16,03,03,13.10
2017,08,16,03,04,13.10
2017,08,16,03,05,13.10
2017,08,16,03,06,13.10
2017,08,16,03,07,13.10
2017,08,16,03,08,13.10
2017,08,16,03,09,13.00
2017,08,16,03,10,13.00
2017,08,16,03,11,13.00
2017,08,16,03,12,13.00
2017,08,16,03,13,13.00
2017,08,16,03,14,13.00
2017,08,16,03,15,13.00
2017,08,16,03,16,13.00
2017,08,16,03,17,13.00
2017,08,16,03,18,12.90
2017,08,16,03,19,12.90
2017,08,16,03,20,12.90
2017,08,16,03,21,12.90
2017,08,16,03,22,12.90
2017,08,16,03,23,12.90
2017,08,16,03,24,12.90
2017,08,16,03,25,12.90
2017,08,16,03,26,12.90
2017,08,16,03,27,12.90
2017,08,16,03,28,12.90
2017,08,16,03,29,12.90
2017,08,16,03,30,12.90
2017,08,16,03,31,12.90
2017,08,16,03,32,12.90
2017,08,16,03,33,12.90
2017,08,16,03,34,12.90
2017,08,16,03,35,12.90
2017,08,16,03,36,12.90
2017,08,16,03,37,12.90
2017,08,16,03,38,12.90
2017,08,16,03,39,12.90
2017,08,16,03,40,12.90
2017,08,16,03,41,12.90
2017,08,16,03,42,12.90
2017,08,16,03,43,12.90
2017,08,16,03,44,12.90
2017,08,16,03,45,12.90
2017,08,16,03,46,12.90
2017,08,16,03,47,12.90
2017,08,16,03,48,12.90
2017,08,16,03,49,12.90
2017,08,16,03,50,12.90
2017,08,16,03,51,12.90
2017,08,16,03,52,12.90
2017,08,16,03,53,12.90
2017,08,16,03,54,12.90
2017,08,16,03,55,12.90
2017,08,16,03,56,12.90
2017,08,16,03,57,12.90
2017,08,16,03,58,12.90
2017,08,16,03,59,12.90
2017,08,16,04,00,12.90
2017,08,16,04,01,12.80
2017,08,16,04,02,12.80
2017,08,16,04,03,12.80
2017,08,16,05,04,12.70
2017,08,16,05,05,12.70
2017,08,16,05,06,12.70
2017,08,16,05,07,12.70
2017,08,16,05,08,12.70
2017,08,16,05,09,12.70
2017,08,16,05,10,12.70
2017,08,16,05,11,12.70
2017,08,16,05,12,12.70
2017,08,16,05,13,12.70
2017,08,16,05,14,12.70
2017,08,16,05,15,12.70
2017,08,16,05,16,12.70
2017,08,16,05,17,12.70
2017,08,16,05,18,12.70
2017,08,16,05,19,12.70
2017,08,16,05,20,12.70
2017,08,16,05,21,12.70
2017,08,16,05,22,12.70
2017,08,16,05,23,12.70
2017,08,16,05,24,12.70
2017,08,16,05,25,12.70
2017,08,16,05,26,12.70
2017,08,16,05,27,12.70
2017,08,16,05,28,12.70
2017,08,16,05,29,12.70
2017,08,16,05,30,12.70
2017,08,16,05,31,12.70
2017,08,16,05,32,12.70
2017,08,16,05,33,12.70
2017,08,16,05,34,12.70
2017,08,16,05,35,12.70
2017,08,16,05,36,12.70
2017,08,16,05,37,12.70
2017,08,16,05,38,12.70
2017,08,16,05,39,12.70
2017,08,16,05,40,12.70
2017,08,16,05,41,12.70
2017,08,16,05,42,12.70
2017,08,16,05,43,12.70
2017,08,16,05,44,12.70
2017,08,16,05,45,12.70
2017,08,16,05,46,12.70
2017,08,16,05,47,12.70
2017,08,16,05,48,12.70
2017,08,16,05,49,12.80
2017,08,16,05,50,12.80
2017,08,16,05,51,12.80
2017,08,16,05,52,12.80
2017,08,16,05,53,12.80
2017,08,16,05,54,12.80
2017,08,16,05,55,12.80
2017,08,16,05,56,12.80
2017,08,16,05,57,12.80
2017,08,16,05,58,12.80
2017,08,16,05,59,12.80
2017,08,16,06,00,12.80
2017,08,16,06,01,12.80
2017,08,16,06,02,12.80
2017,08,16,06,03,12.80
2017,08,16,06,04,12.80
2017,08,16,06,05,12.80
2017,08,16,06,06,12.80
2017,08,16,06,07,12.80
2017,08,16,06,08,12.80
2017,08,16,06,09,12.80
2017,08,16,06,10,12.80
2017,08,16,06,11,12.80
2017,08,16,06,12,12.80
2017,08,16,06,13,12.80
2017,08,16,06,14,12.80
2017,08,16,06,15,12.80
2017,08,16,06,16,12.80
2017,08,16,06,17,12.80
2017,08,16,06,18,12.80
2017,08,16,06,19,12.80
2017,08,16,06,20,12.80
2017,08,16,06,21,12.80
2017,08,16,06,22,12.80
2017,08,16,06,23,12.80
2017,08,16,06,24,12.80
2017,08,16,06,25,12.80
2017,08,16,06,26,12.80
2017,08,16,06,27,12.80
2017,08,16,06,28,12.80
2017,08,16,06,29,12.80
2017,08,16,06,30,12.80
2017,08,16,06,31,12.80
2017,08,16,06,32,12.80
2017,08,16,06,33,12.80
2017,08,16,06,34,12.80
2017,08,16,06,35,12.90
2017,08,16,06,36,12.80
2017,08,16,06,37,12.80
2017,08,16,06,38,12.80
2017,08,16,06,39,12.80
2017,08,16,06,40,12.80
2017,08,16,06,41,12.80
2017,08,16,06,42,12.80
2017,08,16,06,43,12.80
2017,08,16,06,44,12.80
2017,08,16,06,45,12.80
2017,08,16,06,46,12.80
2017,08,16,06,47,12.80
2017,08,16,06,48,12.80
2017,08,16,06,49,12.80
2017,08,16,06,50,12.80
2017,08,16,06,51,12.80
2017,08,16,06,52,12.80
2017,08,16,06,53,12.80
2017,08,16,06,54,12.80
2017,08,16,06,55,12.80
2017,08,16,06,56,12.80
2017,08,16,06,57,12.80
2017,08,16,06,58,12.80
2017,08,16,06,59,12.80
2017,08,16,07,00,12.80
2017,08,16,07,01,12.80
2017,08,16,07,02,12.80
2017,08,16,07,03,12.80
2017,08,16,07,04,12.80
2017,08,16,07,05,12.90
2017,08,16,07,06,12.90
2017,08,16,07,07,12.90
2017,08,16,07,08,12.90
2017,08,16,07,09,12.90
2017,08,16,07,10,12.90
2017,08,16,07,11,13.00
2017,08,16,07,12,13.00
2017,08,16,07,13,13.00
2017,08,16,07,14,13.10
2017,08,16,07,15,13.10
2017,08,16,07,16,13.10
2017,08,16,07,17,13.10
2017,08,16,07,18,13.10
2017,08,16,07,19,13.10
2017,08,16,07,20,13.20
2017,08,16,07,21,13.20
2017,08,16,07,22,13.20
2017,08,16,07,23,13.20
2017,08,16,07,24,13.30
2017,08,16,07,25,13.30
2017,08,16,07,26,13.30
2017,08,16,07,27,13.30
2017,08,16,07,28,13.40
2017,08,16,07,29,13.40
2017,08,16,07,30,13.50
2017,08,16,07,31,13.60
2017,08,16,07,32,13.60
2017,08,16,07,33,13.70
2017,08,16,07,34,13.70
2017,08,16,07,35,13.80
2017,08,16,07,36,13.90
2017,08,16,07,37,13.90
2017,08,16,07,38,14.00
2017,08,16,07,39,14.10
2017,08,16,07,40,14.10
2017,08,16,07,41,14.20
2017,08,16,07,42,14.30
2017,08,16,07,43,14.40
2017,08,16,07,44,14.40
2017,08,16,07,45,14.50
2017,08,16,07,46,14.60
2017,08,16,07,47,14.70
2017,08,16,07,48,14.80
2017,08,16,07,49,14.80
2017,08,16,07,50,14.90
2017,08,16,07,51,15.00
2017,08,16,07,52,15.10
2017,08,16,07,53,15.10
2017,08,16,07,54,15.20
2017,08,16,07,55,15.20
2017,08,16,07,56,15.30
2017,08,16,07,57,15.30
2017,08,16,07,58,15.30
2017,08,16,07,59,15.30
2017,08,16,08,00,15.30
2017,08,16,08,01,15.30
2017,08,16,08,02,15.40
2017,08,16,08,03,15.50
2017,08,16,08,04,15.50
2017,08,16,08,05,15.60
2017,08,16,08,06,15.60
2017,08,16,08,07,15.70
2017,08,16,08,08,15.70
2017,08,16,08,09,15.80
2017,08,16,08,10,15.80
2017,08,16,08,11,15.80
2017,08,16,08,12,15.80
2017,08,16,08,13,15.80
2017,08,16,08,14,15.90
2017,08,16,08,15,15.90
2017,08,16,08,16,16.00
2017,08,16,08,17,16.10
2017,08,16,08,18,16.10
2017,08,16,08,19,16.20
2017,08,16,08,20,16.20
2017,08,16,08,21,16.20
2017,08,16,08,22,16.30
2017,08,16,08,23,16.30
2017,08,16,08,24,16.30
2017,08,16,08,25,16.40
2017,08,16,08,26,16.50
2017,08,16,08,27,16.60
2017,08,16,08,28,16.60
2017,08,16,08,29,16.70
2017,08,16,08,30,16.70
2017,08,16,08,31,17.00
2017,08,16,08,32,17.10
2017,08,16,08,33,17.20
2017,08,16,08,34,17.30
2017,08,16,08,35,17.40
2017,08,16,08,36,17.50
2017,08,16,08,37,17.50
2017,08,16,08,38,17.60
2017,08,16,08,39,17.60
2017,08,16,08,40,17.60
2017,08,16,08,41,17.60
2017,08,16,08,42,17.70
2017,08,16,08,43,17.70
2017,08,16,08,44,17.70
2017,08,16,08,45,17.80
2017,08,16,08,46,17.80
2017,08,16,08,47,17.80
2017,08,16,08,48,17.90
2017,08,16,08,49,17.90
2017,08,16,08,50,17.90
2017,08,16,08,51,17.90
2017,08,16,08,52,18.00
2017,08,16,08,53,18.00
2017,08,16,08,54,18.10
2017,08,16,08,55,18.10
2017,08,16,08,56,18.20
2017,08,16,08,57,18.20
2017,08,16,08,58,18.20
2017,08,16,08,59,18.20
2017,08,16,09,00,18.30
2017,08,16,09,01,18.30
2017,08,16,09,02,18.30
2017,08,16,09,03,18.30
2017,08,16,09,04,18.30
2017,08,16,09,05,18.30
2017,08,16,09,06,18.30
2017,08,16,09,07,18.30
2017,08,16,09,08,18.30
2017,08,16,09,09,18.30
2017,08,16,09,10,18.20
2017,08,16,09,11,18.20
2017,08,16,09,12,18.20
2017,08,16,09,13,18.20
2017,08,16,09,14,18.20
2017,08,16,09,15,18.20
2017,08,16,09,16,18.20
2017,08,16,09,17,18.20
2017,08,16,09,18,18.20
2017,08,16,09,19,18.20
2017,08,16,09,20,18.20
2017,08,16,09,21,18.20
2017,08,16,09,22,18.20
2017,08,16,09,23,18.20
2017,08,16,09,24,18.20
2017,08,16,09,25,18.20
2017,08,16,09,26,18.20
2017,08,16,09,27,18.20
2017,08,16,09,28,18.20
2017,08,16,09,29,18.20
2017,08,16,09,30,18.20
2017,08,16,09,31,18.20
2017,08,16,09,32,18.10
2017,08,16,09,33,18.10
2017,08,16,09,34,18.10
2017,08,16,09,35,18.10
2017,08,16,09,36,18.00
2017,08,16,09,37,18.00
2017,08,16,09,38,17.90
2017,08,16,09,39,17.90
2017,08,16,09,40,17.90
2017,08,16,09,41,17.90
2017,08,16,09,42,17.90
2017,08,16,09,43,17.90
2017,08,16,09,44,17.80
2017,08,16,09,45,17.80
2017,08,16,09,46,17.80
2017,08,16,09,47,17.90
2017,08,16,09,48,17.90
2017,08,16,09,49,17.90
2017,08,16,09,50,17.90
2017,08,16,09,51,17.90
2017,08,16,09,52,17.90
2017,08,16,09,53,18.00
2017,08,16,09,54,18.00
2017,08,16,09,55,18.10
2017,08,16,09,56,18.10
2017,08,16,09,57,18.20
2017,08,16,09,58,18.30
2017,08,16,09,59,18.30
2017,08,16,10,00,18.30
2017,08,16,10,01,18.40
2017,08,16,10,02,18.40
2017,08,16,10,03,18.50
2017,08,16,10,04,18.60
2017,08,16,10,05,18.60
2017,08,16,10,06,18.70
2017,08,16,10,07,18.80
2017,08,16,10,08,18.80
2017,08,16,10,09,18.90
2017,08,16,10,10,18.90
2017,08,16,10,11,18.90
2017,08,16,10,12,18.90
2017,08,16,10,13,18.90
2017,08,16,10,14,18.80
2017,08,16,10,15,18.80
2017,08,16,10,16,18.80
2017,08,16,10,17,18.80
2017,08,16,10,18,18.80
2017,08,16,10,19,18.80
2017,08,16,10,20,18.80
2017,08,16,10,21,18.80
2017,08,16,10,22,18.80
2017,08,16,10,23,18.80
2017,08,16,10,24,18.80
2017,08,16,10,25,18.80
2017,08,16,10,26,18.80
2017,08,16,10,27,18.80
2017,08,16,10,28,18.80
2017,08,16,10,29,18.80
2017,08,16,10,30,18.80
2017,08,16,10,31,18.80
2017,08,16,10,32,18.80
2017,08,16,10,33,18.80
2017,08,16,10,34,18.90
2017,08,16,10,35,18.90
2017,08,16,10,36,18.90
2017,08,16,10,37,19.00
2017,08,16,10,38,19.00
2017,08,16,10,39,19.00
2017,08,16,10,40,19.10
2017,08,16,10,41,19.10
2017,08,16,10,42,19.10
2017,08,16,10,43,19.10
2017,08,16,10,44,19.10
2017,08,16,10,45,19.10
2017,08,16,10,46,19.10
2017,08,16,10,47,19.10
2017,08,16,10,48,19.10
2017,08,16,10,49,19.10
2017,08,16,10,50,19.10
2017,08,16,10,51,19.10
2017,08,16,10,52,19.10
2017,08,16,10,53,19.00
2017,08,16,10,54,19.00
2017,08,16,10,55,18.90
2017,08,16,10,56,18.90
2017,08,16,10,57,18.90
2017,08,16,10,58,18.80
2017,08,16,10,59,18.80
2017,08,16,11,00,18.80
2017,08,16,11,01,18.80
2017,08,16,11,02,18.70
2017,08,16,11,03,18.70
2017,08,16,11,04,18.70
2017,08,16,11,05,18.70
2017,08,16,11,06,18.60
2017,08,16,11,07,18.60
2017,08,16,11,08,18.60
2017,08,16,11,09,18.50
2017,08,16,11,10,18.50
2017,08,16,11,11,18.40
2017,08,16,11,12,18.30
2017,08,16,11,13,18.30
2017,08,16,11,14,18.30
2017,08,16,11,15,18.30
2017,08,16,11,16,18.30
2017,08,16,11,17,18.30
2017,08,16,11,18,18.30
2017,08,16,11,19,18.30
2017,08,16,11,20,18.30
2017,08,16,11,21,18.30
2017,08,16,11,22,18.30
2017,08,16,11,23,18.40
2017,08,16,11,24,18.40
2017,08,16,11,25,18.50
2017,08,16,11,26,18.60
2017,08,16,11,27,18.70
2017,08,16,11,28,18.70
2017,08,16,11,29,18.80
2017,08,16,11,30,18.80
2017,08,16,11,31,18.90
2017,08,16,11,32,18.90
2017,08,16,11,33,18.90
2017,08,16,11,34,18.90
2017,08,16,11,35,19.00
2017,08,16,11,36,19.10
2017,08,16,11,37,19.20
2017,08,16,11,38,19.30
2017,08,16,11,39,19.40
2017,08,16,11,40,19.40
2017,08,16,11,41,19.40
2017,08,16,11,42,19.40
2017,08,16,11,43,19.40
2017,08,16,11,44,19.40
2017,08,16,11,45,19.30
2017,08,16,11,46,19.30
2017,08,16,11,47,19.20
2017,08,16,11,48,19.20
2017,08,16,11,49,19.20
2017,08,16,11,50,19.20
2017,08,16,11,51,19.20
2017,08,16,11,52,19.20
2017,08,16,11,53,19.20
2017,08,16,11,54,19.20
2017,08,16,11,55,19.20
2017,08,16,11,56,19.20
2017,08,16,11,57,19.20
2017,08,16,11,58,19.20
2017,08,16,11,59,19.30
2017,08,16,12,00,19.30
2017,08,16,12,01,19.30
2017,08,16,12,02,19.20
2017,08,16,12,03,19.20
2017,08,16,12,04,19.20
2017,08,16,12,05,19.20
2017,08,16,12,06,19.20
2017,08,16,12,07,19.30
2017,08,16,12,08,19.30
2017,08,16,12,09,19.30
2017,08,16,12,10,19.20
2017,08,16,12,11,19.20
2017,08,16,12,12,19.20
2017,08,16,12,13,19.20
2017,08,16,12,14,19.20
2017,08,16,12,15,19.10
2017,08,16,12,16,19.10
2017,08,16,12,17,19.00
2017,08,16,12,18,19.00
2017,08,16,12,19,19.00
2017,08,16,12,20,18.90
2017,08,16,12,21,18.90
2017,08,16,12,22,18.90
2017,08,16,12,23,18.90
2017,08,16,12,24,18.90
2017,08,16,12,25,18.90
2017,08,16,12,26,19.00
2017,08,16,12,27,19.10
2017,08,16,12,28,19.10
2017,08,16,12,29,19.10
2017,08,16,12,30,19.10
2017,08,16,12,31,19.20
2017,08,16,12,32,19.20
2017,08,16,12,33,19.20
2017,08,16,12,34,19.30
2017,08,16,12,35,19.30
2017,08,16,12,36,19.30
2017,08,16,12,37,19.30
2017,08,16,12,38,19.30
2017,08,16,12,39,19.30
2017,08,16,12,40,19.30
2017,08,16,12,41,19.30
2017,08,16,12,42,19.30
2017,08,16,12,43,19.30
2017,08,16,12,44,19.30
2017,08,16,12,45,19.30
2017,08,16,12,46,19.30
2017,08,16,12,47,19.40
2017,08,16,12,48,19.40
2017,08,16,12,49,19.40
2017,08,16,12,50,19.30
2017,08,16,12,51,19.30
2017,08,16,12,52,19.30
2017,08,16,12,53,19.30
2017,08,16,12,54,19.40
2017,08,16,12,55,19.40
2017,08,16,12,56,19.40
2017,08,16,12,57,19.50
2017,08,16,12,58,19.50
2017,08,16,12,59,19.60
2017,08,16,13,00,19.60
2017,08,16,13,01,19.70
2017,08,16,13,02,19.70
2017,08,16,13,03,19.70
2017,08,16,13,04,19.70
2017,08,16,13,05,19.80
2017,08,16,13,06,19.80
2017,08,16,13,07,19.80
2017,08,16,13,08,19.90
2017,08,16,13,09,19.90
2017,08,16,13,10,19.90
2017,08,16,13,11,20.00
2017,08,16,13,12,20.10
2017,08,16,13,13,20.20
2017,08,16,13,14,20.20
2017,08,16,13,15,20.20
2017,08,16,13,16,20.20
2017,08,16,13,17,20.30
2017,08,16,13,18,20.30
2017,08,16,13,19,20.40
2017,08,16,13,20,20.50
2017,08,16,13,21,20.60
2017,08,16,13,22,20.60
2017,08,16,13,23,20.60
2017,08,16,13,24,20.60
2017,08,16,13,25,20.60
2017,08,16,13,26,20.60
2017,08,16,13,27,20.60
2017,08,16,13,28,20.60
2017,08,16,13,29,20.60
2017,08,16,13,30,20.60
2017,08,16,13,31,20.60
2017,08,16,13,32,20.60
2017,08,16,13,33,20.60
2017,08,16,13,34,20.70
2017,08,16,13,35,20.70
2017,08,16,13,36,20.70
2017,08,16,13,37,20.70
2017,08,16,13,38,20.70
2017,08,16,13,39,20.70
2017,08,16,13,40,20.80
2017,08,16,13,41,20.80
2017,08,16,13,42,20.80
2017,08,16,13,43,20.90
2017,08,16,13,44,20.90
2017,08,16,13,45,20.90
2017,08,16,13,46,21.00
2017,08,16,13,47,21.00
2017,08,16,13,48,20.90
2017,08,16,13,49,20.90
2017,08,16,13,50,20.90
2017,08,16,13,51,20.80
2017,08,16,13,52,20.80
2017,08,16,13,53,20.90
2017,08,16,13,54,21.00
2017,08,16,13,55,21.10
2017,08,16,13,56,21.10
2017,08,16,13,57,21.20
2017,08,16,13,58,21.30
2017,08,16,13,59,21.30
2017,08,16,14,00,21.40
2017,08,16,14,01,21.50
2017,08,16,14,02,21.50
2017,08,16,14,03,21.50
2017,08,16,14,04,21.60
2017,08,16,14,05,21.60
2017,08,16,14,06,21.60
2017,08,16,14,07,21.60
2017,08,16,14,08,21.60
2017,08,16,14,09,21.70
2017,08,16,14,10,21.70
2017,08,16,14,11,21.70
2017,08,16,14,12,21.70
2017,08,16,14,13,21.70
2017,08,16,14,14,21.70
2017,08,16,14,15,21.70
2017,08,16,14,16,21.70
2017,08,16,14,17,21.70
2017,08,16,14,18,21.70
2017,08,16,14,19,21.70
2017,08,16,14,20,21.70
2017,08,16,14,21,21.70
2017,08,16,14,22,21.70
2017,08,16,14,23,21.70
2017,08,16,14,24,21.70
2017,08,16,14,25,21.70
2017,08,16,14,26,21.70
2017,08,16,14,27,21.80
2017,08,16,14,28,21.80
2017,08,16,14,29,21.80
2017,08,16,14,30,21.90
2017,08,16,14,31,21.90
2017,08,16,14,32,22.00
2017,08,16,14,33,22.00
2017,08,16,14,34,22.10
2017,08,16,14,35,22.10
2017,08,16,14,36,22.10
2017,08,16,14,37,22.10
2017,08,16,14,38,22.20
2017,08,16,14,39,22.20
2017,08,16,14,40,22.30
2017,08,16,14,41,22.30
2017,08,16,14,42,22.40
2017,08,16,14,43,22.40
2017,08,16,14,44,22.50
2017,08,16,14,45,22.50
2017,08,16,14,46,22.50
2017,08,16,14,47,22.60
2017,08,16,14,48,22.60
2017,08,16,14,49,22.60
2017,08,16,14,50,22.60
2017,08,16,14,51,22.60
2017,08,16,14,52,22.60
2017,08,16,14,53,22.60
2017,08,16,14,54,22.70
2017,08,16,14,55,22.70
2017,08,16,14,56,22.70
2017,08,16,14,57,22.70
2017,08,16,14,58,22.60
2017,08,16,14,59,22.60
2017,08,16,15,00,22.70
2017,08,16,15,01,22.70
2017,08,16,15,02,22.70
2017,08,16,15,03,22.70
2017,08,16,15,04,22.70
2017,08,16,15,05,22.80
2017,08,16,15,06,22.80
2017,08,16,15,07,22.80
2017,08,16,15,08,22.90
2017,08,16,15,09,22.90
2017,08,16,15,10,22.90
2017,08,16,15,11,22.90
2017,08,16,15,12,22.90
2017,08,16,15,13,22.90
2017,08,16,15,14,23.00
2017,08,16,15,15,23.00
2017,08,16,15,16,23.00
2017,08,16,15,17,23.10
2017,08,16,15,18,23.20
2017,08,16,15,19,23.30
2017,08,16,15,20,23.40
2017,08,16,15,21,23.50
2017,08,16,15,22,23.60
2017,08,16,15,23,23.70
2017,08,16,15,24,23.70
2017,08,16,15,25,23.70
2017,08,16,15,26,23.70
2017,08,16,15,27,23.60
2017,08,16,15,28,23.60
2017,08,16,15,29,23.60
2017,08,16,15,30,23.60
2017,08,16,15,31,23.70
2017,08,16,15,32,23.70
2017,08,16,15,33,23.70
2017,08,16,15,34,23.70
2017,08,16,15,35,23.70
2017,08,16,15,36,23.60
2017,08,16,15,37,23.60
2017,08,16,15,38,23.60
2017,08,16,15,39,23.60
2017,08,16,15,40,23.60
2017,08,16,15,41,23.70
2017,08,16,15,42,23.70
2017,08,16,15,43,23.70
2017,08,16,15,44,23.70
2017,08,16,15,45,23.60
2017,08,16,15,46,23.60
2017,08,16,15,47,23.60
2017,08,16,15,48,23.50
2017,08,16,15,49,23.50
2017,08,16,15,50,23.30
2017,08,16,15,51,23.20
2017,08,16,15,52,23.10
2017,08,16,15,53,23.00
2017,08,16,15,54,23.00
2017,08,16,15,55,22.90
2017,08,16,15,56,22.90
2017,08,16,15,57,22.80
2017,08,16,15,58,22.80
2017,08,16,15,59,22.80
2017,08,16,16,00,22.80
2017,08,16,16,01,22.80
2017,08,16,16,02,22.80
2017,08,16,16,03,22.80
2017,08,16,16,04,22.80
2017,08,16,16,05,22.80
2017,08,16,16,06,22.70
2017,08,16,16,07,22.70
2017,08,16,16,08,22.70
2017,08,16,16,09,22.70
2017,08,16,16,10,22.70
2017,08,16,16,11,22.70
2017,08,16,16,12,22.70
2017,08,16,16,13,22.80
2017,08,16,16,14,22.80
2017,08,16,16,15,22.80
2017,08,16,16,16,22.80
2017,08,16,16,17,22.90
2017,08,16,16,18,22.90
2017,08,16,16,19,22.90
2017,08,16,16,20,22.90
2017,08,16,16,21,22.90
2017,08,16,16,22,23.00
2017,08,16,16,23,23.10
2017,08,16,16,24,23.10
2017,08,16,16,25,23.20
2017,08,16,16,26,23.30
2017,08,16,16,27,23.40
2017,08,16,16,28,23.50
2017,08,16,16,29,23.60
2017,08,16,16,30,23.70
2017,08,16,16,31,23.80
2017,08,16,16,32,23.80
2017,08,16,16,33,23.80
2017,08,16,16,34,23.80
2017,08,16,16,35,23.70
2017,08,16,16,36,23.60
2017,08,16,16,37,23.60
2017,08,16,16,38,23.60
2017,08,16,16,39,23.70
2017,08,16,16,40,23.80
2017,08,16,16,41,23.80
2017,08,16,16,42,23.90
2017,08,16,16,43,23.90
2017,08,16,16,44,23.90
2017,08,16,16,45,24.00
2017,08,16,16,46,24.00
2017,08,16,16,47,24.00
2017,08,16,16,48,24.10
2017,08,16,16,49,24.10
2017,08,16,16,50,24.10
2017,08,16,16,51,24.10
2017,08,16,16,52,24.00
2017,08,16,16,53,23.90
2017,08,16,16,54,23.80
2017,08,16,16,55,23.60
2017,08,16,16,56,23.50
2017,08,16,16,57,23.50
2017,08,16,16,58,23.40
2017,08,16,16,59,23.40
2017,08,16,17,00,23.40
2017,08,16,17,01,23.30
2017,08,16,17,02,23.30
2017,08,16,17,03,23.30
2017,08,16,17,04,23.20
2017,08,16,17,05,23.20
2017,08,16,17,06,23.20
2017,08,16,17,07,23.10
2017,08,16,17,08,23.10
2017,08,16,17,09,23.10
2017,08,16,17,10,23.10
2017,08,16,17,11,23.10
2017,08,16,17,12,23.10
2017,08,16,17,13,23.00
2017,08,16,17,14,22.90
2017,08,16,17,15,22.90
2017,08,16,17,16,22.80
2017,08,16,17,17,22.80
2017,08,16,17,18,22.80
2017,08,16,17,19,22.80
2017,08,16,17,20,22.80
2017,08,16,17,21,22.80
2017,08,16,17,22,22.80
2017,08,16,17,23,22.80
2017,08,16,17,24,22.80
2017,08,16,17,25,22.70
2017,08,16,17,26,22.60
2017,08,16,17,27,22.60
2017,08,16,17,28,22.60
2017,08,16,17,29,22.60
2017,08,16,17,30,22.60
2017,08,16,17,31,22.60
2017,08,16,17,32,22.70
2017,08,16,17,33,22.70
2017,08,16,17,34,22.70
2017,08,16,17,35,22.70
2017,08,16,17,36,22.70
2017,08,16,17,37,22.80
2017,08,16,17,38,22.80
2017,08,16,17,39,22.80
2017,08,16,17,40,22.80
2017,08,16,17,41,22.80
2017,08,16,17,42,22.70
2017,08,16,17,43,22.70
2017,08,16,17,44,22.70
2017,08,16,17,45,22.70
2017,08,16,17,46,22.70
2017,08,16,17,47,22.70
2017,08,16,17,48,22.70
2017,08,16,17,49,22.80
2017,08,16,17,50,22.80
2017,08,16,17,51,22.90
2017,08,16,17,52,22.90
2017,08,16,17,53,22.90
2017,08,16,17,54,22.90
2017,08,16,17,55,22.90
2017,08,16,17,56,22.90
2017,08,16,17,57,22.90
2017,08,16,17,58,22.90
2017,08,16,17,59,22.90
2017,08,16,18,00,22.90
2017,08,16,18,01,22.90
2017,08,16,18,02,23.00
2017,08,16,18,03,23.00
2017,08,16,18,04,23.10
2017,08,16,18,05,23.10
2017,08,16,18,06,23.10
2017,08,16,18,07,23.10
2017,08,16,18,08,23.00
2017,08,16,18,09,23.00
2017,08,16,18,10,22.90
2017,08,16,18,11,22.90
2017,08,16,18,12,22.90
2017,08,16,18,13,22.90
2017,08,16,18,14,22.90
2017,08,16,18,15,22.90
2017,08,16,18,16,22.90
2017,08,16,18,17,22.90
2017,08,16,18,18,22.90
2017,08,16,18,19,22.80